Powrót do katalogu

STARLINK-32320

AktywnyŁącznośćVLEO
NORAD 61638·PAYLOAD·🇺🇸 United States

Wystrzelony Oct 23, 2024 z Cape Canaveral Space Force Station

Loading…

Następne Przeloty (najbliższe 24 godziny)

TLE

ŚwieżeSource: CelesTrak SupGP

Epoka: Sep 14, 2026, 22:33 UTC

1 61638C 24191T   26257.94006944 -.00038778  00000+0 -14046-2 0  2577
2 61638  43.0012 169.6129 0001395 266.8335 135.2510 15.27596756    12

Śledź STARLINK-32320 w czasie rzeczywistym z AllMySat

Download on the App Store